UAL2024 TJSJ-KIAD

Flight info

Callsign UAL2024
Flight time 3h 31m
Altitude 38000
Route ACONY3 PALDE DCT DONQU DCT LNHOM/M081F380 L452 OXANA/N0463F380 AR8 ECG DCT COUPN DCT DORRN CAVLR6
Aircraft B739/M-SDE2E3FGHIRWXY/LB1

Departure

Time 2026-05-05 22:10
Airport Luis Munoz Marin International Airport (TJSJ)

Arrival

Time 2026-05-06 01:42
Airport Washington Dulles International Airport (KIAD)
Time Latitude Longitude Altitude Speed Heading
2026-05-05 21:47 18.43618 -66.00143 -27 ft 0 kts
2026-05-05 22:03 18.43616 -66.00143 -55 ft 2 kts 360°
2026-05-05 22:03 18.43592 -66.00141 -35 ft 4 kts 345°
2026-05-05 22:03 18.43570 -66.00130 -28 ft 4 kts 311°
2026-05-05 22:03 18.43561 -66.00110 -50 ft 1 kts 270°
2026-05-05 22:04 18.43561 -66.00109 -50 ft 1 kts 270°
2026-05-05 22:06 18.43561 -66.00120 -31 ft 6 kts 270°
2026-05-05 22:06 18.43561 -66.00185 -36 ft 11 kts 270°
2026-05-05 22:06 18.43507 -66.00227 -36 ft 12 kts 187°
2026-05-05 22:06 18.43461 -66.00295 -42 ft 13 kts 273°
2026-05-05 22:07 18.43466 -66.00390 -31 ft 14 kts 272°
2026-05-05 22:07 18.43468 -66.00496 -29 ft 17 kts 270°
2026-05-05 22:07 18.43468 -66.00623 -29 ft 17 kts 269°
2026-05-05 22:07 18.43467 -66.00746 -29 ft 16 kts 270°
2026-05-05 22:08 18.43467 -66.00864 -29 ft 16 kts 270°
2026-05-05 22:08 18.43468 -66.00978 -30 ft 15 kts 269°
2026-05-05 22:08 18.43468 -66.01092 -31 ft 17 kts 269°
2026-05-05 22:08 18.43467 -66.01213 -32 ft 16 kts 270°
2026-05-05 22:09 18.43462 -66.01328 -32 ft 15 kts 249°
2026-05-05 22:09 18.43372 -66.01345 -41 ft 15 kts 140°
2026-05-05 22:09 18.43356 -66.01240 -46 ft 31 kts 89°
2026-05-05 22:09 18.43352 -66.00765 -37 ft 99 kts 89°
2026-05-05 22:10 18.43356 -65.99836 -35 ft 152 kts 91°
2026-05-05 22:10 18.43339 -65.98617 215 ft 176 kts 93°
2026-05-05 22:10 18.43314 -65.97239 683 ft 199 kts 88°
2026-05-05 22:10 18.43939 -65.96002 1525 ft 191 kts 38°
2026-05-05 22:11 18.45187 -65.95550 2156 ft 201 kts
2026-05-05 22:11 18.46598 -65.95925 2316 ft 222 kts 327°
2026-05-05 22:11 18.47819 -65.97010 2500 ft 238 kts 313°
2026-05-05 22:11 18.48995 -65.98319 2708 ft 253 kts 311°
2026-05-05 22:12 18.50206 -65.99718 3023 ft 263 kts 311°
2026-05-05 22:12 18.51437 -66.01140 3502 ft 264 kts 311°
2026-05-05 22:12 18.52719 -66.02612 3743 ft 279 kts 312°
2026-05-05 22:12 18.54054 -66.04137 4223 ft 285 kts 313°
2026-05-05 22:13 18.55401 -66.05667 4935 ft 286 kts 313°
2026-05-05 22:13 18.56748 -66.07189 5722 ft 281 kts 313°
2026-05-05 22:13 18.58083 -66.08694 6387 ft 282 kts 313°
2026-05-05 22:13 18.59428 -66.10210 6960 ft 285 kts 313°
2026-05-05 22:14 18.60790 -66.11743 7517 ft 288 kts 312°
2026-05-05 22:14 18.62167 -66.13293 8083 ft 291 kts 312°
2026-05-05 22:14 18.63557 -66.14856 8666 ft 293 kts 312°
2026-05-05 22:14 18.64941 -66.16412 9210 ft 297 kts 312°
2026-05-05 22:15 18.66378 -66.18028 9780 ft 299 kts 312°
2026-05-05 22:15 18.67792 -66.19620 10248 ft 305 kts 312°
2026-05-05 22:15 18.69288 -66.21304 10378 ft 324 kts 312°
2026-05-05 22:15 18.70867 -66.23081 10511 ft 340 kts 312°
2026-05-05 22:16 18.72525 -66.24949 10623 ft 356 kts 312°
2026-05-05 22:16 18.74256 -66.26898 10740 ft 372 kts 312°
2026-05-05 22:16 18.76055 -66.28924 10831 ft 385 kts 312°
2026-05-05 22:16 18.77922 -66.31027 10921 ft 398 kts 312°
2026-05-05 22:17 18.79839 -66.33187 11100 ft 406 kts 312°
2026-05-05 22:17 18.81772 -66.35366 11498 ft 407 kts 312°
2026-05-05 22:17 18.83713 -66.37554 11921 ft 408 kts 312°
2026-05-05 22:17 18.85654 -66.39743 12305 ft 409 kts 312°
2026-05-05 22:18 18.87577 -66.41914 12663 ft 411 kts 312°
2026-05-05 22:18 18.89534 -66.44124 13025 ft 413 kts 313°
2026-05-05 22:18 18.91501 -66.46345 13383 ft 414 kts 313°
2026-05-05 22:18 18.93487 -66.48556 13745 ft 415 kts 314°
2026-05-05 22:19 18.95560 -66.50697 14056 ft 417 kts 316°
2026-05-05 22:19 18.97674 -66.52807 14377 ft 417 kts 316°
2026-05-05 22:19 18.99788 -66.54908 14735 ft 417 kts 316°
2026-05-05 22:19 19.01890 -66.57012 15073 ft 417 kts 315°
2026-05-05 22:20 19.03987 -66.59129 15389 ft 417 kts 315°
2026-05-05 22:20 19.06084 -66.61254 15723 ft 417 kts 315°
2026-05-05 22:20 19.08187 -66.63374 16019 ft 418 kts 316°
2026-05-05 22:20 19.10337 -66.65405 16261 ft 421 kts 317°
2026-05-05 22:21 19.12564 -66.67420 16535 ft 422 kts 318°
2026-05-05 22:21 19.14815 -66.69425 16822 ft 423 kts 318°
2026-05-05 22:21 19.17073 -66.71432 17097 ft 424 kts 318°
2026-05-05 22:21 19.19331 -66.73447 17350 ft 425 kts 318°
2026-05-05 22:22 19.21595 -66.75477 17616 ft 426 kts 318°
2026-05-05 22:22 19.23855 -66.77513 17877 ft 427 kts 318°
2026-05-05 22:22 19.26121 -66.79559 18144 ft 428 kts 318°
2026-05-05 22:22 19.28391 -66.81613 18405 ft 429 kts 317°
2026-05-05 22:23 19.30662 -66.83670 18606 ft 431 kts 317°
2026-05-05 22:23 19.32913 -66.85712 18787 ft 432 kts 317°
2026-05-05 22:23 19.35202 -66.87788 18977 ft 434 kts 317°
2026-05-05 22:23 19.37501 -66.89873 19167 ft 435 kts 317°
2026-05-05 22:24 19.39807 -66.91966 19339 ft 437 kts 317°
2026-05-05 22:24 19.42118 -66.94065 19523 ft 438 kts 317°
2026-05-05 22:24 19.44442 -66.96175 19704 ft 440 kts 317°
2026-05-05 22:24 19.46773 -66.98293 19874 ft 441 kts 317°
2026-05-05 22:25 19.49106 -67.00414 20026 ft 443 kts 317°
2026-05-05 22:25 19.51453 -67.02547 20194 ft 444 kts 317°
2026-05-05 22:25 19.53798 -67.04680 20368 ft 445 kts 317°
2026-05-05 22:25 19.56153 -67.06823 20526 ft 447 kts 317°
2026-05-05 22:26 19.58518 -67.08977 20654 ft 449 kts 317°
2026-05-05 22:26 19.60890 -67.11137 20815 ft 450 kts 317°
2026-05-05 22:26 19.63265 -67.13300 20972 ft 451 kts 317°
2026-05-05 22:26 19.65652 -67.15476 21107 ft 453 kts 317°
2026-05-05 22:27 19.68044 -67.17657 21235 ft 454 kts 317°
2026-05-05 22:27 19.70445 -67.19847 21383 ft 455 kts 317°
2026-05-05 22:27 19.72816 -67.22011 21524 ft 456 kts 317°
2026-05-05 22:27 19.75228 -67.24212 21649 ft 458 kts 317°
2026-05-05 22:28 19.77643 -67.26419 21775 ft 459 kts 317°
2026-05-05 22:28 19.80067 -67.28633 21905 ft 460 kts 317°
2026-05-05 22:28 19.82494 -67.30852 22021 ft 461 kts 317°
2026-05-05 22:28 19.84931 -67.33080 22139 ft 462 kts 317°
2026-05-05 22:29 19.87374 -67.35315 22256 ft 464 kts 317°
2026-05-05 22:29 19.89831 -67.37564 22368 ft 465 kts 317°
2026-05-05 22:29 19.92284 -67.39809 22489 ft 465 kts 317°
2026-05-05 22:29 19.94745 -67.42064 22603 ft 466 kts 317°
2026-05-05 22:30 19.97202 -67.44316 22698 ft 467 kts 317°
2026-05-05 22:30 19.99670 -67.46578 22798 ft 469 kts 317°
2026-05-05 22:30 20.02140 -67.48844 22900 ft 469 kts 317°
2026-05-05 22:30 20.04616 -67.51116 22993 ft 471 kts 317°
2026-05-05 22:31 20.07064 -67.53363 23080 ft 472 kts 317°
2026-05-05 22:31 20.09550 -67.55646 23172 ft 473 kts 317°
2026-05-05 22:31 20.12043 -67.57936 23270 ft 473 kts 317°
2026-05-05 22:31 20.13693 -67.59453 23337 ft 474 kts 317°
2026-05-05 22:32 20.14243 -67.59959 23352 ft 474 kts 317°
2026-05-05 22:32 20.16740 -67.62255 23423 ft 475 kts 317°
2026-05-05 22:32 20.19243 -67.64558 23514 ft 476 kts 317°
2026-05-05 22:32 20.21750 -67.66865 23593 ft 477 kts 317°
2026-05-05 22:33 20.24267 -67.69183 23660 ft 477 kts 317°
2026-05-05 22:33 20.26778 -67.71496 23734 ft 478 kts 317°
2026-05-05 22:33 20.29294 -67.73815 23827 ft 478 kts 317°
2026-05-05 22:33 20.31811 -67.76134 23911 ft 478 kts 317°
2026-05-05 22:34 20.34301 -67.78432 23968 ft 479 kts 317°
2026-05-05 22:34 20.36818 -67.80754 24047 ft 479 kts 317°
2026-05-05 22:34 20.39340 -67.83083 24114 ft 479 kts 317°
2026-05-05 22:34 20.41861 -67.85412 24184 ft 480 kts 317°
2026-05-05 22:35 20.44384 -67.87743 24247 ft 480 kts 317°
2026-05-05 22:35 20.46906 -67.90075 24324 ft 480 kts 317°
2026-05-05 22:35 20.49431 -67.92410 24393 ft 480 kts 317°
2026-05-05 22:35 20.51959 -67.94750 24456 ft 481 kts 317°
2026-05-05 22:36 20.54490 -67.97093 24519 ft 481 kts 317°
2026-05-05 22:36 20.57018 -67.99434 24572 ft 481 kts 317°
2026-05-05 22:36 20.58695 -68.00988 24622 ft 481 kts 317°
2026-05-05 22:36 20.62075 -68.04122 24710 ft 482 kts 317°
2026-05-05 22:37 20.63752 -68.05677 24741 ft 482 kts 317°
2026-05-05 22:37 20.66285 -68.08028 24791 ft 482 kts 317°
2026-05-05 22:37 20.69642 -68.11143 24880 ft 482 kts 317°
2026-05-05 22:37 20.72268 -68.13384 24925 ft 485 kts 323°
2026-05-05 22:38 20.75125 -68.15313 24975 ft 486 kts 326°
2026-05-05 22:38 20.77049 -68.16546 25012 ft 486 kts 327°
2026-05-05 22:38 20.79998 -68.18408 25067 ft 487 kts 327°
2026-05-05 22:38 20.82918 -68.20247 25115 ft 487 kts 327°
2026-05-05 22:39 20.85837 -68.22101 25174 ft 488 kts 327°
2026-05-05 22:39 20.88717 -68.23947 25323 ft 489 kts 326°
2026-05-05 22:39 20.91628 -68.25827 25514 ft 489 kts 326°
2026-05-05 22:39 20.94540 -68.27716 25679 ft 489 kts 326°
2026-05-05 22:40 20.97454 -68.29614 25810 ft 490 kts 326°
2026-05-05 22:40 21.00368 -68.31514 25929 ft 491 kts 326°
2026-05-05 22:40 21.03289 -68.33420 26038 ft 492 kts 326°
2026-05-05 22:40 21.06217 -68.35331 26133 ft 492 kts 326°
2026-05-05 22:41 21.09140 -68.37239 26258 ft 492 kts 326°
2026-05-05 22:41 21.12061 -68.39146 26428 ft 491 kts 326°
2026-05-05 22:41 21.14933 -68.41021 26604 ft 489 kts 326°
2026-05-05 22:41 21.17841 -68.42920 26753 ft 489 kts 326°
2026-05-05 22:42 21.20747 -68.44819 26874 ft 489 kts 326°
2026-05-05 22:42 21.23653 -68.46719 27008 ft 489 kts 326°
2026-05-05 22:42 21.26551 -68.48614 27161 ft 488 kts 326°
2026-05-05 22:42 21.29449 -68.50511 27308 ft 487 kts 326°
2026-05-05 22:43 21.32347 -68.52409 27436 ft 487 kts 326°
2026-05-05 22:43 21.35240 -68.54304 27569 ft 487 kts 326°
2026-05-05 22:43 21.38128 -68.56197 27698 ft 486 kts 325°
2026-05-05 22:43 21.41014 -68.58089 27844 ft 486 kts 325°
2026-05-05 22:44 21.43900 -68.59982 27959 ft 485 kts 325°
2026-05-05 22:44 21.46780 -68.61872 28078 ft 485 kts 325°
2026-05-05 22:44 21.49658 -68.63762 28222 ft 485 kts 325°
2026-05-05 22:44 21.52534 -68.65651 28359 ft 484 kts 325°
2026-05-05 22:45 21.55371 -68.67516 28478 ft 484 kts 325°
2026-05-05 22:45 21.58237 -68.69400 28588 ft 483 kts 325°
2026-05-05 22:45 21.61117 -68.71295 28719 ft 483 kts 325°
2026-05-05 22:45 21.63984 -68.73181 28855 ft 482 kts 325°
2026-05-05 22:46 21.66850 -68.75068 28963 ft 482 kts 325°
2026-05-05 22:46 21.69708 -68.76951 29081 ft 482 kts 325°
2026-05-05 22:46 21.72564 -68.78833 29191 ft 481 kts 325°
2026-05-05 22:46 21.75421 -68.80717 29292 ft 481 kts 325°
2026-05-05 22:47 21.78279 -68.82603 29393 ft 481 kts 325°
2026-05-05 22:47 21.81096 -68.84462 29509 ft 481 kts 325°
2026-05-05 22:47 21.83944 -68.86342 29623 ft 480 kts 325°
2026-05-05 22:48 21.89644 -68.90109 29817 ft 480 kts 325°
2026-05-05 22:48 21.95338 -68.93875 30030 ft 479 kts 325°
2026-05-05 22:49 22.01030 -68.97643 30178 ft 480 kts 325°
2026-05-05 22:49 22.06710 -69.01408 30359 ft 478 kts 325°
2026-05-05 22:50 22.12388 -69.05173 30500 ft 478 kts 324°
2026-05-05 22:50 22.18021 -69.08913 30658 ft 478 kts 324°
2026-05-05 22:51 22.23682 -69.12675 30796 ft 477 kts 324°
2026-05-05 22:51 22.29337 -69.16437 30949 ft 477 kts 324°
2026-05-05 22:52 22.34984 -69.20197 31077 ft 476 kts 324°
2026-05-05 22:52 22.40588 -69.23932 31224 ft 476 kts 324°
2026-05-05 22:53 22.46226 -69.27694 31325 ft 476 kts 324°
2026-05-05 22:53 22.51860 -69.31455 31479 ft 475 kts 324°
2026-05-05 22:54 22.57486 -69.35216 31580 ft 475 kts 324°
2026-05-05 22:54 22.63105 -69.38976 31711 ft 474 kts 323°
2026-05-05 22:55 22.68716 -69.42734 31811 ft 474 kts 323°
2026-05-05 22:55 22.74334 -69.46500 31936 ft 474 kts 323°
2026-05-05 22:56 22.79937 -69.50259 32029 ft 474 kts 323°
2026-05-05 22:56 22.85505 -69.54000 32154 ft 473 kts 323°
2026-05-05 22:57 22.91101 -69.57762 32245 ft 473 kts 323°
2026-05-05 22:57 22.96693 -69.61525 32363 ft 472 kts 323°
2026-05-05 22:58 23.02274 -69.65285 32460 ft 472 kts 323°
2026-05-05 22:58 23.07816 -69.69022 32580 ft 471 kts 323°
2026-05-05 22:59 23.13388 -69.72784 32645 ft 471 kts 322°
2026-05-05 22:59 23.18955 -69.76545 32768 ft 470 kts 322°
2026-05-05 23:00 23.27282 -69.82178 32891 ft 470 kts 322°
2026-05-05 23:00 23.32828 -69.85934 33004 ft 469 kts 322°
2026-05-05 23:01 23.38364 -69.89688 33078 ft 469 kts 322°
2026-05-05 23:01 23.42964 -69.92810 33149 ft 468 kts 322°
2026-05-05 23:02 23.46131 -69.94961 33187 ft 468 kts 322°
2026-05-05 23:02 23.51666 -69.98723 33283 ft 467 kts 321°
2026-05-05 23:03 23.57181 -70.02475 33336 ft 467 kts 321°
2026-05-05 23:03 23.62702 -70.06235 33429 ft 467 kts 321°
2026-05-05 23:04 23.68169 -70.09961 33516 ft 466 kts 321°
2026-05-05 23:04 23.70912 -70.11835 33792 ft 461 kts 324°
2026-05-05 23:04 23.73598 -70.13666 34250 ft 450 kts 324°
2026-05-05 23:05 23.76243 -70.15470 34420 ft 448 kts 324°
2026-05-05 23:05 23.78884 -70.17273 34447 ft 448 kts 324°
2026-05-05 23:05 23.84182 -70.20898 34508 ft 449 kts 324°
2026-05-05 23:06 23.89473 -70.24520 34594 ft 448 kts 324°
2026-05-05 23:06 23.94762 -70.28144 34705 ft 447 kts 324°
2026-05-05 23:07 24.00002 -70.31736 34830 ft 446 kts 324°
2026-05-05 23:07 24.05254 -70.35341 34967 ft 445 kts 323°
2026-05-05 23:08 24.10494 -70.38941 35093 ft 443 kts 323°
2026-05-05 23:08 24.15712 -70.42530 35234 ft 441 kts 323°
2026-05-05 23:09 24.20903 -70.46103 35366 ft 440 kts 323°
2026-05-05 23:09 24.26042 -70.49645 35494 ft 438 kts 323°
2026-05-05 23:10 24.31193 -70.53197 35648 ft 436 kts 323°
2026-05-05 23:10 24.36312 -70.56731 35758 ft 434 kts 323°
2026-05-05 23:11 24.41441 -70.60277 35776 ft 435 kts 323°
2026-05-05 23:11 24.46565 -70.63822 35813 ft 435 kts 323°
2026-05-05 23:12 24.51692 -70.67372 35880 ft 435 kts 323°
2026-05-05 23:12 24.56802 -70.70914 35946 ft 434 kts 323°
2026-05-05 23:13 24.61912 -70.74459 35988 ft 434 kts 323°
2026-05-05 23:13 24.66984 -70.77982 36025 ft 434 kts 323°
2026-05-05 23:14 24.72095 -70.81535 36091 ft 433 kts 323°
2026-05-05 23:14 24.77189 -70.85080 36139 ft 433 kts 323°
2026-05-05 23:15 24.82267 -70.88617 36212 ft 432 kts 323°
2026-05-05 23:15 24.87343 -70.92157 36234 ft 431 kts 323°
2026-05-05 23:16 24.92380 -70.95673 36256 ft 431 kts 323°
2026-05-05 23:16 24.97437 -70.99202 36296 ft 430 kts 325°
2026-05-05 23:17 25.02941 -71.01879 36305 ft 438 kts 340°
2026-05-05 23:17 25.08888 -71.03455 36340 ft 439 kts 342°
2026-05-05 23:18 25.14798 -71.04970 36354 ft 438 kts 341°
2026-05-05 23:18 25.20733 -71.06521 36379 ft 437 kts 341°
2026-05-05 23:19 25.26641 -71.08089 36409 ft 436 kts 341°
2026-05-05 23:19 25.32541 -71.09665 36422 ft 435 kts 341°
2026-05-05 23:20 25.38429 -71.11240 36444 ft 434 kts 341°
2026-05-05 23:20 25.44257 -71.12800 36461 ft 434 kts 341°
2026-05-05 23:21 25.50115 -71.14369 36478 ft 433 kts 341°
2026-05-05 23:21 25.55966 -71.15938 36498 ft 432 kts 341°
2026-05-05 23:22 25.61802 -71.17504 36519 ft 431 kts 341°
2026-05-05 23:22 25.67632 -71.19070 36549 ft 430 kts 341°
2026-05-05 23:23 25.73450 -71.20634 36569 ft 429 kts 340°
2026-05-05 23:23 25.79251 -71.22196 36585 ft 428 kts 340°
2026-05-05 23:24 25.85011 -71.23748 36608 ft 427 kts 340°
2026-05-05 23:24 25.90790 -71.25307 36628 ft 427 kts 340°
2026-05-05 23:25 25.96555 -71.26863 36650 ft 426 kts 340°
2026-05-05 23:25 26.01343 -71.28157 36667 ft 425 kts 340°
2026-05-05 23:26 26.08030 -71.29966 36689 ft 424 kts 340°
2026-05-05 23:26 26.12802 -71.31258 36709 ft 424 kts 340°
2026-05-05 23:27 26.18527 -71.32810 36734 ft 423 kts 340°
2026-05-05 23:27 26.24246 -71.34362 36750 ft 422 kts 340°
2026-05-05 23:28 26.29949 -71.35911 36769 ft 422 kts 340°
2026-05-05 23:28 26.35650 -71.37460 36804 ft 421 kts 340°
2026-05-05 23:29 26.41343 -71.39010 36822 ft 420 kts 340°
2026-05-05 23:29 26.47024 -71.40557 36845 ft 420 kts 340°
2026-05-05 23:30 26.52701 -71.42105 36869 ft 419 kts 340°
2026-05-05 23:30 26.58336 -71.43644 36895 ft 419 kts 340°
2026-05-05 23:31 26.63992 -71.45189 36923 ft 418 kts 340°
2026-05-05 23:31 26.69651 -71.46737 36935 ft 417 kts 340°
2026-05-05 23:32 26.72176 -71.47428 36956 ft 417 kts 340°
2026-05-05 23:32 26.77792 -71.48967 36979 ft 417 kts 340°
2026-05-05 23:33 26.83420 -71.50510 37015 ft 416 kts 340°
2026-05-05 23:33 26.89063 -71.52060 37052 ft 418 kts 340°
2026-05-05 23:34 26.94739 -71.53621 37085 ft 420 kts 340°
2026-05-05 23:34 27.00439 -71.55189 37122 ft 422 kts 340°
2026-05-05 23:35 27.06115 -71.56751 37141 ft 423 kts 340°
2026-05-05 23:35 27.11850 -71.58331 37168 ft 424 kts 340°
2026-05-05 23:36 27.17585 -71.59913 37204 ft 424 kts 340°
2026-05-05 23:36 27.23326 -71.61499 37225 ft 424 kts 340°
2026-05-05 23:37 27.29024 -71.63074 37245 ft 425 kts 340°
2026-05-05 23:37 27.34769 -71.64665 37269 ft 425 kts 339°
2026-05-05 23:38 27.40505 -71.66254 37287 ft 424 kts 339°
2026-05-05 23:38 27.46249 -71.67847 37309 ft 424 kts 339°
2026-05-05 23:39 27.51989 -71.69441 37350 ft 424 kts 339°
2026-05-05 23:39 27.57681 -71.71023 37372 ft 424 kts 339°
2026-05-05 23:40 27.63408 -71.72617 37398 ft 423 kts 339°
2026-05-05 23:40 27.69128 -71.74211 37424 ft 423 kts 339°
2026-05-05 23:41 27.74839 -71.75803 37447 ft 423 kts 339°
2026-05-05 23:41 27.80555 -71.77399 37472 ft 423 kts 339°
2026-05-05 23:42 27.86228 -71.78985 37501 ft 422 kts 339°
2026-05-05 23:42 27.91934 -71.80581 37523 ft 422 kts 339°
2026-05-05 23:43 27.97633 -71.82178 37551 ft 422 kts 339°
2026-05-05 23:43 28.03346 -71.83780 37575 ft 421 kts 339°
2026-05-05 23:44 28.09036 -71.85377 37601 ft 421 kts 339°
2026-05-05 23:44 28.14729 -71.86977 37625 ft 421 kts 339°
2026-05-05 23:45 28.20379 -71.88567 37651 ft 421 kts 339°
2026-05-05 23:45 28.26073 -71.90171 37668 ft 421 kts 339°
2026-05-05 23:46 28.31759 -71.91774 37693 ft 420 kts 339°
2026-05-05 23:46 28.37441 -71.93379 37714 ft 420 kts 339°
2026-05-05 23:47 28.43089 -71.94978 37750 ft 420 kts 339°
2026-05-05 23:47 28.48755 -71.96585 37770 ft 419 kts 339°
2026-05-05 23:48 28.54417 -71.98192 37792 ft 419 kts 339°
2026-05-05 23:48 28.60078 -71.99800 37813 ft 419 kts 339°
2026-05-05 23:49 28.65733 -72.01409 37839 ft 419 kts 339°
2026-05-05 23:49 28.71359 -72.03011 37867 ft 419 kts 339°
2026-05-05 23:50 28.77007 -72.04621 37890 ft 418 kts 339°
2026-05-05 23:50 28.82655 -72.06233 37918 ft 418 kts 339°
2026-05-05 23:51 28.88304 -72.07847 37980 ft 417 kts 339°
2026-05-05 23:51 28.91107 -72.08647 38116 ft 414 kts 339°
2026-05-05 23:51 28.93899 -72.09445 38123 ft 413 kts 339°
2026-05-05 23:52 28.99464 -72.11038 38144 ft 411 kts 339°
2026-05-05 23:52 29.05016 -72.12631 38147 ft 410 kts 339°
2026-05-05 23:53 29.10517 -72.14210 38148 ft 409 kts 339°
2026-05-05 23:53 29.16043 -72.15798 38147 ft 409 kts 339°
2026-05-05 23:54 29.21563 -72.17386 38132 ft 408 kts 339°
2026-05-05 23:54 29.27075 -72.18973 38142 ft 408 kts 339°
2026-05-05 23:55 29.32581 -72.20560 38149 ft 407 kts 339°
2026-05-05 23:55 29.38075 -72.22146 38151 ft 407 kts 339°
2026-05-05 23:56 29.43535 -72.23723 38149 ft 407 kts 339°
2026-05-05 23:56 29.49030 -72.25313 38151 ft 406 kts 339°
2026-05-05 23:57 29.54523 -72.26903 38157 ft 406 kts 339°
2026-05-05 23:57 29.60006 -72.28493 38154 ft 406 kts 339°
2026-05-05 23:58 29.65490 -72.30084 38155 ft 406 kts 339°
2026-05-05 23:58 29.70929 -72.31664 38163 ft 406 kts 339°
2026-05-05 23:59 29.76406 -72.33257 38161 ft 405 kts 339°
2026-05-05 23:59 29.81873 -72.34848 38173 ft 405 kts 339°
2026-05-06 00:00 29.87360 -72.36446 38163 ft 407 kts 339°
2026-05-06 00:00 29.92827 -72.38045 38165 ft 409 kts 340°
2026-05-06 00:01 29.98357 -72.39662 38162 ft 411 kts 340°
2026-05-06 00:01 30.02968 -72.41010 38157 ft 412 kts 340°
2026-05-06 00:02 30.06271 -72.41977 38161 ft 412 kts 340°
2026-05-06 00:02 30.11807 -72.43599 38168 ft 413 kts 340°
2026-05-06 00:03 30.17380 -72.45235 38165 ft 413 kts 340°
2026-05-06 00:03 30.22959 -72.46884 38166 ft 414 kts 340°
2026-05-06 00:04 30.28545 -72.48539 38164 ft 414 kts 340°
2026-05-06 00:04 30.34129 -72.50195 38167 ft 414 kts 340°
2026-05-06 00:05 30.42511 -72.52684 38166 ft 415 kts 340°
2026-05-06 00:06 30.48105 -72.54348 38169 ft 415 kts 340°
2026-05-06 00:06 30.53696 -72.56012 38170 ft 415 kts 340°
2026-05-06 00:07 30.59252 -72.57672 38171 ft 415 kts 340°
2026-05-06 00:07 30.64843 -72.59352 38168 ft 414 kts 340°
2026-05-06 00:08 30.70437 -72.61036 38174 ft 414 kts 340°
2026-05-06 00:08 30.76020 -72.62718 38169 ft 414 kts 340°
2026-05-06 00:09 30.81600 -72.64402 38168 ft 414 kts 340°
2026-05-06 00:09 30.87136 -72.66073 38171 ft 414 kts 340°
2026-05-06 00:10 30.92712 -72.67759 38173 ft 414 kts 340°
2026-05-06 00:10 30.98285 -72.69446 38171 ft 413 kts 340°
2026-05-06 00:11 31.03856 -72.71134 38175 ft 413 kts 340°
2026-05-06 00:11 31.09421 -72.72822 38174 ft 413 kts 340°
2026-05-06 00:12 31.14043 -72.74227 38173 ft 413 kts 340°
2026-05-06 00:12 31.20510 -72.76193 38172 ft 413 kts 340°
2026-05-06 00:13 31.26076 -72.77888 38178 ft 413 kts 340°
2026-05-06 00:13 31.30699 -72.79298 38178 ft 413 kts 340°
2026-05-06 00:14 31.36256 -72.80994 38182 ft 412 kts 340°
2026-05-06 00:14 31.41815 -72.82693 38181 ft 412 kts 340°
2026-05-06 00:15 31.47367 -72.84391 38176 ft 412 kts 340°
2026-05-06 00:15 31.52887 -72.86082 38180 ft 412 kts 340°
2026-05-06 00:16 31.58438 -72.87785 38180 ft 412 kts 340°
2026-05-06 00:16 31.63987 -72.89489 38180 ft 412 kts 340°
2026-05-06 00:17 31.69534 -72.91194 38177 ft 412 kts 340°
2026-05-06 00:17 31.75079 -72.92901 38178 ft 412 kts 340°
2026-05-06 00:18 31.80626 -72.94611 38180 ft 412 kts 340°
2026-05-06 00:18 31.86169 -72.96322 38183 ft 412 kts 340°
2026-05-06 00:19 31.91716 -72.98036 38181 ft 412 kts 340°
2026-05-06 00:19 31.97260 -72.99751 38172 ft 412 kts 340°
2026-05-06 00:20 32.02806 -73.01469 38188 ft 412 kts 340°
2026-05-06 00:20 32.08322 -73.03180 38194 ft 412 kts 340°
2026-05-06 00:21 32.13862 -73.04900 38188 ft 412 kts 340°
2026-05-06 00:21 32.19408 -73.06625 38189 ft 412 kts 340°
2026-05-06 00:22 32.24955 -73.08352 38181 ft 412 kts 340°
2026-05-06 00:22 32.30501 -73.10081 38183 ft 412 kts 340°
2026-05-06 00:23 32.36027 -73.11808 38182 ft 412 kts 340°
2026-05-06 00:23 32.41572 -73.13545 38186 ft 412 kts 340°
2026-05-06 00:24 32.47126 -73.15288 38181 ft 413 kts 340°
2026-05-06 00:24 32.52684 -73.17033 38186 ft 413 kts 340°
2026-05-06 00:25 32.58244 -73.18782 38180 ft 413 kts 340°
2026-05-06 00:25 32.63756 -73.20517 38185 ft 413 kts 340°
2026-05-06 00:26 32.69309 -73.22269 38188 ft 413 kts 340°
2026-05-06 00:26 32.74861 -73.24021 38187 ft 413 kts 340°
2026-05-06 00:27 32.80416 -73.25777 38185 ft 413 kts 340°
2026-05-06 00:27 32.85977 -73.27537 38183 ft 413 kts 340°
2026-05-06 00:28 32.91527 -73.29297 38189 ft 413 kts 340°
2026-05-06 00:28 32.97083 -73.31060 38188 ft 413 kts 340°
2026-05-06 00:29 33.02639 -73.32825 38189 ft 413 kts 340°
2026-05-06 00:29 33.08161 -73.34582 38186 ft 413 kts 341°
2026-05-06 00:30 33.13721 -73.36354 38188 ft 413 kts 341°
2026-05-06 00:30 33.19287 -73.38130 38190 ft 414 kts 341°
2026-05-06 00:31 33.24847 -73.39905 38191 ft 414 kts 341°
2026-05-06 00:31 33.30410 -73.41680 38189 ft 414 kts 341°
2026-05-06 00:32 33.33134 -73.42549 38187 ft 414 kts 341°
2026-05-06 00:32 33.38574 -73.44287 38191 ft 414 kts 341°
2026-05-06 00:33 33.44147 -73.46070 38190 ft 414 kts 341°
2026-05-06 00:33 33.49677 -73.47842 38189 ft 414 kts 341°
2026-05-06 00:34 33.55249 -73.49630 38190 ft 414 kts 341°
2026-05-06 00:34 33.60817 -73.51418 38191 ft 414 kts 341°
2026-05-06 00:35 33.66346 -73.53197 38193 ft 414 kts 341°
2026-05-06 00:35 33.71921 -73.54993 38196 ft 413 kts 341°
2026-05-06 00:36 33.77480 -73.56787 38193 ft 413 kts 341°
2026-05-06 00:36 33.83011 -73.58573 38184 ft 413 kts 341°
2026-05-06 00:37 33.88569 -73.60370 38190 ft 413 kts 341°
2026-05-06 00:37 33.94129 -73.62169 38198 ft 413 kts 341°
2026-05-06 00:38 33.99684 -73.63969 38184 ft 413 kts 341°
2026-05-06 00:38 34.05204 -73.65760 38192 ft 413 kts 341°
2026-05-06 00:39 34.10749 -73.67563 38188 ft 413 kts 341°
2026-05-06 00:39 34.16301 -73.69370 38188 ft 413 kts 341°
2026-05-06 00:40 34.21843 -73.71176 38197 ft 412 kts 341°
2026-05-06 00:40 34.27379 -73.72983 38200 ft 412 kts 341°
2026-05-06 00:41 34.32878 -73.74916 38179 ft 409 kts 334°
2026-05-06 00:41 34.37806 -73.78240 38185 ft 404 kts 323°
2026-05-06 00:42 34.41973 -73.82768 38209 ft 403 kts 314°
2026-05-06 00:42 34.45852 -73.87610 38203 ft 403 kts 314°
2026-05-06 00:43 34.49754 -73.92489 38191 ft 403 kts 314°
2026-05-06 00:43 34.53663 -73.97352 38185 ft 403 kts 314°
2026-05-06 00:44 34.57577 -74.02213 38183 ft 402 kts 314°
2026-05-06 00:44 34.61494 -74.07079 38189 ft 402 kts 314°
2026-05-06 00:45 34.65405 -74.11945 38186 ft 402 kts 314°
2026-05-06 00:45 34.69314 -74.16816 38184 ft 402 kts 314°
2026-05-06 00:46 34.73201 -74.21666 38185 ft 402 kts 314°
2026-05-06 00:46 34.77108 -74.26550 38184 ft 402 kts 314°
2026-05-06 00:47 34.81012 -74.31436 38175 ft 402 kts 314°
2026-05-06 00:47 34.84916 -74.36329 38178 ft 402 kts 314°
2026-05-06 00:48 34.88812 -74.41219 38177 ft 402 kts 314°
2026-05-06 00:48 34.92714 -74.46124 38174 ft 403 kts 314°
2026-05-06 00:49 34.96586 -74.50998 38178 ft 403 kts 314°
2026-05-06 00:49 35.00480 -74.55906 38170 ft 403 kts 314°
2026-05-06 00:50 35.04377 -74.60827 38165 ft 403 kts 314°
2026-05-06 00:50 35.08273 -74.65753 38169 ft 403 kts 314°
2026-05-06 00:51 35.12170 -74.70687 38166 ft 403 kts 314°
2026-05-06 00:51 35.16039 -74.75593 38166 ft 403 kts 314°
2026-05-06 00:52 35.19932 -74.80537 38159 ft 403 kts 314°
2026-05-06 00:52 35.23819 -74.85481 38155 ft 403 kts 314°
2026-05-06 00:53 35.27707 -74.90433 38159 ft 403 kts 314°
2026-05-06 00:53 35.31592 -74.95390 38153 ft 403 kts 314°
2026-05-06 00:54 35.35469 -75.00343 38146 ft 402 kts 314°
2026-05-06 00:54 35.39319 -75.05268 38144 ft 402 kts 314°
2026-05-06 00:55 35.43190 -75.10218 38144 ft 402 kts 314°
2026-05-06 00:55 35.47066 -75.15168 38138 ft 402 kts 314°
2026-05-06 00:56 35.50941 -75.20128 38134 ft 401 kts 314°
2026-05-06 00:56 35.54801 -75.25076 38129 ft 401 kts 314°
2026-05-06 00:57 35.58635 -75.30000 38128 ft 400 kts 313°
2026-05-06 00:57 35.62145 -75.34514 38120 ft 400 kts 313°
2026-05-06 00:58 35.65990 -75.39465 38117 ft 399 kts 313°
2026-05-06 00:58 35.69823 -75.44409 38117 ft 399 kts 313°
2026-05-06 00:59 35.73664 -75.49359 37904 ft 402 kts 313°
2026-05-06 00:59 35.75596 -75.51848 37639 ft 402 kts 313°
2026-05-06 00:59 35.77493 -75.54294 37368 ft 397 kts 313°
2026-05-06 00:59 35.79388 -75.56740 37095 ft 392 kts 313°
2026-05-06 01:00 35.81256 -75.59153 36828 ft 386 kts 313°
2026-05-06 01:00 35.83105 -75.61545 36580 ft 385 kts 313°
2026-05-06 01:00 35.84964 -75.63951 36340 ft 391 kts 313°
2026-05-06 01:00 35.86856 -75.66403 36103 ft 398 kts 313°
2026-05-06 01:01 35.88785 -75.68903 35865 ft 405 kts 313°
2026-05-06 01:01 35.90077 -75.70580 35704 ft 409 kts 313°
2026-05-06 01:01 35.92042 -75.73130 35473 ft 412 kts 313°
2026-05-06 01:01 35.94026 -75.75709 35233 ft 415 kts 313°
2026-05-06 01:02 35.94236 -75.75981 35204 ft 415 kts 313°
2026-05-06 01:02 35.96582 -75.79032 34930 ft 418 kts 313°
2026-05-06 01:02 35.97936 -75.80793 34772 ft 420 kts 313°
2026-05-06 01:02 35.99933 -75.83394 34520 ft 422 kts 313°
2026-05-06 01:03 36.01958 -75.86033 34291 ft 424 kts 313°
2026-05-06 01:03 36.03987 -75.88679 34152 ft 422 kts 313°
2026-05-06 01:03 36.06005 -75.91313 34125 ft 423 kts 313°
2026-05-06 01:04 36.10054 -75.96603 34092 ft 423 kts 313°
2026-05-06 01:04 36.14111 -76.01914 33864 ft 427 kts 313°
2026-05-06 01:04 36.16154 -76.04591 33588 ft 427 kts 312°
2026-05-06 01:05 36.18195 -76.07268 33323 ft 427 kts 312°
2026-05-06 01:05 36.20234 -76.09945 33060 ft 428 kts 312°
2026-05-06 01:05 36.22278 -76.12630 32801 ft 428 kts 312°
2026-05-06 01:05 36.24323 -76.15319 32532 ft 429 kts 312°
2026-05-06 01:06 36.26371 -76.18014 32297 ft 430 kts 312°
2026-05-06 01:06 36.28400 -76.20686 32051 ft 431 kts 312°
2026-05-06 01:06 36.30456 -76.23395 31802 ft 432 kts 311°
2026-05-06 01:06 36.32521 -76.26120 31558 ft 434 kts 311°
2026-05-06 01:07 36.35121 -76.29553 31256 ft 435 kts 311°
2026-05-06 01:07 36.37200 -76.32300 31004 ft 437 kts 311°
2026-05-06 01:07 36.39278 -76.35049 30760 ft 438 kts 311°
2026-05-06 01:07 36.41367 -76.37815 30520 ft 439 kts 311°
2026-05-06 01:08 36.43499 -76.40537 30274 ft 441 kts 316°
2026-05-06 01:08 36.45922 -76.42898 30115 ft 446 kts 324°
2026-05-06 01:08 36.48579 -76.44834 30079 ft 449 kts 327°
2026-05-06 01:09 36.54014 -76.48660 30059 ft 448 kts 327°
2026-05-06 01:09 36.59433 -76.52510 30064 ft 447 kts 327°
2026-05-06 01:10 36.64821 -76.56383 30060 ft 447 kts 327°
2026-05-06 01:10 36.70195 -76.60266 30067 ft 446 kts 327°
2026-05-06 01:11 36.75547 -76.64142 30064 ft 446 kts 327°
2026-05-06 01:11 36.80920 -76.68038 30057 ft 446 kts 327°
2026-05-06 01:12 36.86290 -76.71938 30050 ft 446 kts 327°
2026-05-06 01:12 36.91662 -76.75846 30019 ft 447 kts 327°
2026-05-06 01:13 36.97035 -76.79760 30021 ft 447 kts 326°
2026-05-06 01:13 37.01509 -76.83025 30021 ft 447 kts 326°
2026-05-06 01:14 37.09574 -76.88921 30020 ft 447 kts 326°
2026-05-06 01:14 37.14956 -76.92863 30014 ft 448 kts 326°
2026-05-06 01:15 37.18993 -76.95824 29999 ft 448 kts 326°
2026-05-06 01:15 37.20788 -76.97141 30001 ft 448 kts 326°
2026-05-06 01:16 37.26106 -77.01049 29996 ft 448 kts 326°
2026-05-06 01:16 37.31487 -77.05010 29999 ft 448 kts 326°
2026-05-06 01:17 37.36865 -77.08976 29985 ft 448 kts 326°
2026-05-06 01:17 37.42201 -77.12918 29977 ft 442 kts 326°
2026-05-06 01:18 37.47490 -77.16832 29888 ft 442 kts 326°
2026-05-06 01:18 37.50178 -77.18828 28957 ft 451 kts 326°
2026-05-06 01:18 37.52873 -77.20827 28045 ft 450 kts 326°
2026-05-06 01:19 37.55572 -77.22831 27063 ft 450 kts 325°
2026-05-06 01:19 37.58282 -77.24844 26034 ft 453 kts 325°
2026-05-06 01:19 37.60988 -77.26856 25310 ft 449 kts 325°
2026-05-06 01:19 37.63646 -77.28831 24563 ft 447 kts 325°
2026-05-06 01:20 37.66315 -77.30818 23737 ft 447 kts 325°
2026-05-06 01:20 37.68989 -77.32811 22865 ft 445 kts 325°
2026-05-06 01:20 37.71647 -77.34794 22076 ft 441 kts 325°
2026-05-06 01:20 37.74280 -77.36757 21349 ft 437 kts 325°
2026-05-06 01:21 37.76895 -77.38709 20635 ft 433 kts 325°
2026-05-06 01:21 37.79474 -77.40637 19938 ft 429 kts 325°
2026-05-06 01:21 37.82040 -77.42558 19219 ft 427 kts 325°
2026-05-06 01:21 37.84593 -77.44473 18513 ft 425 kts 325°
2026-05-06 01:22 37.87136 -77.46381 17734 ft 424 kts 325°
2026-05-06 01:22 37.89665 -77.48281 16995 ft 421 kts 325°
2026-05-06 01:22 37.92180 -77.50170 16299 ft 417 kts 325°
2026-05-06 01:22 37.94631 -77.52013 15633 ft 414 kts 325°
2026-05-06 01:23 37.97097 -77.53868 14971 ft 410 kts 325°
2026-05-06 01:23 37.99545 -77.55712 14271 ft 408 kts 325°
2026-05-06 01:23 38.01984 -77.57508 13592 ft 406 kts 330°
2026-05-06 01:23 38.04708 -77.58517 13101 ft 410 kts 351°
2026-05-06 01:24 38.07564 -77.58422 12553 ft 416 kts
2026-05-06 01:24 38.10288 -77.57242 12080 ft 413 kts 23°
2026-05-06 01:24 38.12822 -77.55568 11568 ft 408 kts 25°
2026-05-06 01:24 38.15318 -77.53900 11064 ft 402 kts 25°
2026-05-06 01:25 38.17780 -77.52284 10729 ft 393 kts 24°
2026-05-06 01:25 38.20191 -77.50735 10425 ft 383 kts 24°
2026-05-06 01:25 38.22547 -77.49230 10136 ft 375 kts 24°
2026-05-06 01:25 38.24855 -77.47890 9895 ft 363 kts 15°
2026-05-06 01:26 38.27210 -77.47010 9905 ft 344 kts 11°
2026-05-06 01:26 38.29475 -77.46259 9884 ft 328 kts 10°
2026-05-06 01:26 38.31649 -77.45545 9796 ft 317 kts 10°
2026-05-06 01:26 38.33741 -77.44843 9704 ft 305 kts 11°
2026-05-06 01:27 38.35769 -77.44149 9504 ft 299 kts 11°
2026-05-06 01:27 38.37763 -77.43458 9201 ft 296 kts 11°
2026-05-06 01:27 38.39761 -77.42761 8805 ft 298 kts 11°
2026-05-06 01:27 38.41758 -77.42059 8463 ft 298 kts 11°
2026-05-06 01:28 38.43755 -77.41354 8128 ft 297 kts 11°
2026-05-06 01:28 38.45749 -77.40648 7807 ft 296 kts 12°
2026-05-06 01:28 38.47732 -77.39945 7464 ft 296 kts 12°
2026-05-06 01:28 38.49721 -77.39240 7097 ft 297 kts 12°
2026-05-06 01:29 38.51695 -77.38583 6801 ft 296 kts 10°
2026-05-06 01:29 38.53692 -77.37953 6564 ft 294 kts 10°
2026-05-06 01:29 38.55672 -77.37330 6335 ft 294 kts 10°
2026-05-06 01:29 38.57666 -77.36699 6105 ft 296 kts 10°
2026-05-06 01:30 38.59509 -77.36239 5888 ft 294 kts
2026-05-06 01:30 38.61545 -77.36114 5677 ft 292 kts 355°
2026-05-06 01:30 38.63581 -77.36091 5460 ft 293 kts 355°
2026-05-06 01:30 38.65617 -77.36070 5230 ft 293 kts 355°
2026-05-06 01:31 38.67663 -77.36032 5016 ft 293 kts 356°
2026-05-06 01:31 38.69602 -77.35980 4821 ft 292 kts 356°
2026-05-06 01:31 38.71631 -77.35915 4604 ft 290 kts 356°
2026-05-06 01:31 38.73643 -77.35843 4382 ft 288 kts 356°
2026-05-06 01:32 38.75632 -77.35771 4171 ft 285 kts 356°
2026-05-06 01:32 38.77586 -77.35699 3976 ft 283 kts 356°
2026-05-06 01:32 38.78904 -77.35650 3937 ft 277 kts 356°
2026-05-06 01:32 38.80581 -77.35589 3891 ft 276 kts 356°
2026-05-06 01:33 38.82524 -77.35521 3816 ft 282 kts 356°
2026-05-06 01:33 38.84508 -77.35452 3775 ft 287 kts 356°
2026-05-06 01:33 38.86475 -77.35379 3973 ft 278 kts 357°
2026-05-06 01:33 38.88403 -77.35307 3951 ft 274 kts 356°
2026-05-06 01:34 38.90270 -77.35237 3942 ft 260 kts 356°
2026-05-06 01:34 38.92048 -77.35170 3859 ft 253 kts 356°
2026-05-06 01:34 38.93791 -77.35108 3601 ft 250 kts 356°
2026-05-06 01:34 38.95529 -77.35047 3248 ft 249 kts 356°
2026-05-06 01:35 38.97267 -77.34986 2856 ft 249 kts 356°
2026-05-06 01:35 38.98991 -77.34924 2470 ft 248 kts 356°
2026-05-06 01:35 39.00724 -77.34862 2082 ft 250 kts 357°
2026-05-06 01:35 39.02412 -77.34797 1999 ft 233 kts 356°
2026-05-06 01:36 39.03967 -77.34736 2010 ft 218 kts 355°
2026-05-06 01:36 39.05467 -77.34685 1982 ft 218 kts 356°
2026-05-06 01:36 39.06988 -77.34646 2005 ft 218 kts 351°
2026-05-06 01:36 39.08346 -77.35220 2004 ft 196 kts 311°
2026-05-06 01:37 39.09065 -77.36557 2006 ft 174 kts 275°
2026-05-06 01:37 39.09310 -77.38070 2014 ft 173 kts 270°
2026-05-06 01:37 39.09515 -77.39605 1999 ft 175 kts 269°
2026-05-06 01:37 39.09647 -77.41130 1962 ft 166 kts 255°
2026-05-06 01:38 39.09159 -77.42350 1673 ft 152 kts 216°
2026-05-06 01:38 39.08251 -77.43025 1577 ft 153 kts 199°
2026-05-06 01:38 39.07167 -77.43206 1536 ft 160 kts 191°
2026-05-06 01:38 39.06075 -77.43408 1506 ft 160 kts 187°
2026-05-06 01:39 39.04971 -77.43456 1479 ft 157 kts 185°
2026-05-06 01:39 39.03934 -77.43471 1483 ft 142 kts 185°
2026-05-06 01:39 39.02974 -77.43485 1495 ft 134 kts 187°
2026-05-06 01:39 39.02075 -77.43498 1488 ft 125 kts 187°
2026-05-06 01:40 39.01202 -77.43514 1395 ft 129 kts 186°
2026-05-06 01:40 39.00440 -77.43524 1285 ft 130 kts 187°
2026-05-06 01:40 38.99518 -77.43539 1098 ft 134 kts 182°
2026-05-06 01:40 38.98548 -77.43552 934 ft 145 kts 182°
2026-05-06 01:41 38.97535 -77.43564 805 ft 142 kts 181°
2026-05-06 01:41 38.96559 -77.43582 568 ft 140 kts 182°
2026-05-06 01:41 38.95579 -77.43591 381 ft 140 kts 181°
2026-05-06 01:41 38.94654 -77.43609 302 ft 124 kts 182°
2026-05-06 01:42 38.93917 -77.43624 300 ft 84 kts 180°
2026-05-06 01:42 38.93490 -77.43670 302 ft 41 kts 206°
2026-05-06 01:42 38.93362 -77.43769 299 ft 13 kts 215°
2026-05-06 01:42 38.93326 -77.43867 299 ft 12 kts 279°
2026-05-06 01:43 38.93326 -77.43871 299 ft 0 kts 283°
2026-05-06 01:44 38.93327 -77.43872 299 ft 1 kts 289°
2026-05-06 01:44 38.93335 -77.43875 302 ft 3 kts 342°
2026-05-06 01:44 38.93391 -77.43879 299 ft 11 kts
2026-05-06 01:44 38.93466 -77.43878 300 ft 11 kts
2026-05-06 01:45 38.93540 -77.43877 299 ft 12 kts
2026-05-06 01:45 38.93647 -77.43874 301 ft 16 kts
2026-05-06 01:45 38.93757 -77.43871 300 ft 16 kts
2026-05-06 01:45 38.93863 -77.43869 302 ft 15 kts
2026-05-06 01:46 38.93965 -77.43866 299 ft 14 kts
2026-05-06 01:46 38.94062 -77.43866 302 ft 14 kts 360°
2026-05-06 01:46 38.94154 -77.43866 300 ft 13 kts 360°
2026-05-06 01:46 38.94244 -77.43867 300 ft 13 kts 360°
2026-05-06 01:47 38.94361 -77.43867 299 ft 20 kts
2026-05-06 01:47 38.94503 -77.43862 301 ft 20 kts
2026-05-06 01:47 38.94628 -77.43877 300 ft 17 kts 325°
2026-05-06 01:47 38.94652 -77.44008 301 ft 16 kts 265°
2026-05-06 01:48 38.94653 -77.44144 303 ft 15 kts 270°
2026-05-06 01:48 38.94654 -77.44275 300 ft 14 kts 270°
2026-05-06 01:48 38.94654 -77.44401 303 ft 14 kts 270°
2026-05-06 01:48 38.94655 -77.44520 302 ft 13 kts 270°
2026-05-06 01:49 38.94656 -77.44635 299 ft 13 kts 270°
2026-05-06 01:49 38.94656 -77.44748 299 ft 12 kts 270°
2026-05-06 01:49 38.94657 -77.44838 299 ft 12 kts 270°
2026-05-06 01:49 38.94658 -77.44945 299 ft 12 kts 270°
2026-05-06 01:50 38.94658 -77.45050 299 ft 12 kts 270°
2026-05-06 01:50 38.94643 -77.45107 300 ft 3 kts 190°
2026-05-06 01:50 38.94617 -77.45104 301 ft 4 kts 175°
2026-05-06 01:50 38.94592 -77.45102 299 ft 4 kts 178°
2026-05-06 01:51 38.94585 -77.45101 299 ft 0 kts 179°